User: anonymous   Login
Location: Unspecified
(0.0000°N, 0.0000°E)
Time: 19:06:25
(UTC+00:00)
Language:

STARLINK-3278 - Orbit

View from above orbital plane
View from above orbital plane
View from above satellite
View from above satellite

Ground track
Ground track

The orbit is defined by the following mean orbital elements,

1 50830U          26145.42252398 +.00000000 +00000-0 -10180-3 0 00006
2 50830  53.2105 194.6547 0001286  76.1062 284.0073 15.08839028    07
Epoch (UTC): 25 May 2026 10:08:26
Eccentricity: 0.0001286
inclination: 53.2105°
perigee height: 539 km
apogee height: 541 km
right ascension of ascending node: 194.6547°
argument of perigee: 76.1062°
revolutions per day: 15.08839028
mean anomaly at epoch: 284.0073°

The dashed part of the orbit path shows where the satellite is in the earth's shadow,  

DLR